This is the latest recevied weather packets stored in our database for station/object WD4DAN-13. If no packets are shown the sender has not sent any weather packets the latest 10 day(s).
| Time | Temp. | Humidity | Pressure | Rain* | Wind** | Luminosity | Snow |
|---|---|---|---|---|---|---|---|
| 1777915320 | 23.89° C | 45% | - | 0 mm | - | - | - |
| 1777915017 | 25° C | 40% | - | 0 mm | - | - | - |
| 1777914714 | 23.89° C | 42% | - | 0 mm | - | - | - |
| 1777914410 | 25° C | 45% | - | 0 mm | - | - | - |
| 1777914108 | 24.44° C | 42% | - | 0 mm | - | - | - |
| 1777913804 | 25° C | 44% | - | 0 mm | - | - | - |
| 1777913501 | 23.89° C | 43% | - | 0 mm | - | - | - |
| 1777913197 | 24.44° C | 43% | - | 0 mm | - | - | - |
| 1777912893 | 25° C | 42% | - | 0 mm | - | - | - |
| 1777912590 | 24.44° C | 44% | - | 0 mm | - | - | - |
| 1777912281 | 23.89° C | 44% | - | 0 mm | - | - | - |
| 1777911977 | 24.44° C | 44% | - | 0 mm | - | - | - |
| 1777911673 | 23.89° C | 43% | - | 0 mm | - | - | - |
| 1777911370 | 23.89° C | 44% | - | 0 mm | - | - | - |
| 1777911068 | 22.78° C | 45% | - | 0 mm | - | - | - |
| 1777910765 | 23.89° C | 45% | - | 0 mm | - | - | - |
| 1777910461 | 23.33° C | 44% | - | 0 mm | - | - | - |
| 1777910157 | 23.89° C | 47% | - | 0 mm | - | - | - |
| 1777909855 | 22.78° C | 46% | - | 0 mm | - | - | - |
| 1777909552 | 22.78° C | 46% | - | 0 mm | - | - | - |
| 1777909249 | 23.89° C | 45% | - | 0 mm | - | - | - |
| 1777908947 | 23.33° C | 49% | - | 0 mm | - | - | - |
| 1777908646 | 23.33° C | 48% | - | 0 mm | - | - | - |
| 1777908342 | 22.78° C | 45% | - | 0 mm | - | - | - |
| 1777908038 | 22.78° C | 46% | - | 0 mm | - | - | - |
* Rain latest hour (hover to see other rain measurements)
** Current wind speed in m/s (hover to see current wind gust speed)